ITOS 1 (TIROS M)

导读

ITOS 1(TIROS M)是美国NASA于1970年1月23日发射的改进型TIROS业务气象卫星,作为第一代实用气象卫星的首星,运行于约1600km高度轨道。星载红外扫描辐射计与电视摄像机,可昼夜获取全球云图,为天气预报提供持续的太空观测数据,开启了业务化气象卫星观测新时代,为后续NOAA系列气象卫星发展奠定技术基础。

Basic Information
目录编号:
4320
目录名称:
ITOS 1 (TIROS M)
国际标识:
1970-008A
轨道中心:
EARTH
卫星名称:
ITOS 1 (TIROS M)
卫星全名:
--
卫星状态:
在轨 (已飞行20599 天)
发射日期:
1970-01-23 UTC
国别 :
美国 (US)
星等 :
--
Orbit Information
数据来源 国际轨道数据 AOE轨道数据
星历时间 2026-06-17T09:49:08+0800
11小时前
查看轨道信息
2026-06-17T02:00:00+0800
18小时前
查看轨道信息
半长轴 7833.767km 7833.776km
偏心率 0.0027605 0.0027716
轨道倾角 101.369° 101.369°
近地点辐角 314.372° 315.149°
升交点赤经 201.568° 201.256°
平近点角 101.519° 72.859°
近地点 1434.004km 1433.926km
远地点 1477.256km 1477.352km
周期 115.005分钟 115.005分钟
每日圈数 12.521226 12.521203
Detailed Information
使用方式:
暂无
2D Orbit Map
3D Orbit Map
Orbit Altitude Analysis Chart
Orbit Inclination Analysis Chart
Orbit Comprehensive Analysis Chart
View Comprehensive Chart